This is the latest recevied weather packets stored in our database for station/object N5AEH. If no packets are shown the sender has not sent any weather packets the latest 1 day(s).
| Time | Temp. | Humidity | Pressure | Rain* | Wind** | Luminosity | Snow |
|---|---|---|---|---|---|---|---|
| 1778066378 | 11.67° C | 99% | 1012.1 hPa | 0 mm | - | 67 W/m² | - |
| 1778066077 | 11.67° C | 99% | 1012.1 hPa | 0 mm | - | 61 W/m² | - |
| 1778064864 | 11.11° C | 99% | 1012 hPa | 0 mm | - | 18 W/m² | - |
| 1778064259 | 11.11° C | 99% | 1012 hPa | 0 mm | - | 26 W/m² | - |
| 1778061838 | 10.56° C | 99% | 1011.8 hPa | 0 mm | - | 9 W/m² | - |
| 1778061536 | 10.56° C | 99% | 1011.9 hPa | 0 mm | - | 8 W/m² | - |
| 1778061234 | 10.56° C | 99% | 1012 hPa | 0 mm | - | 6 W/m² | - |
| 1778060931 | 10.56° C | 99% | 1011.9 hPa | 0 mm | - | 2 W/m² | - |
| 1778060630 | 10.56° C | 99% | 1011.9 hPa | 0 mm | - | 1 W/m² | - |
| 1778059722 | 10.56° C | 99% | 1012.2 hPa | 0 mm | - | 0 W/m² | - |
| 1778059116 | 10.56° C | 99% | 1011.9 hPa | 0 mm | - | 0 W/m² | - |
| 1778058814 | 10.56° C | 99% | 1012.1 hPa | 0 mm | - | 0 W/m² | - |
| 1778058209 | 11.11° C | 99% | 1012.2 hPa | 0 mm | - | 0 W/m² | - |
| 1778057905 | 11.11° C | 99% | 1012 hPa | 0 mm | - | 0 W/m² | - |
| 1778057601 | 11.11° C | 99% | 1012 hPa | 0 mm | - | 0 W/m² | - |
| 1778056388 | 11.67° C | 99% | 1012 hPa | 0 mm | - | 0 W/m² | - |
| 1778056086 | 11.67° C | 99% | 1012.3 hPa | 0 mm | - | 0 W/m² | - |
| 1778055479 | 11.67° C | 99% | 1012.2 hPa | 0 mm | - | 0 W/m² | - |
| 1778055176 | 11.67° C | 99% | 1012 hPa | 0 mm | - | 0 W/m² | - |
| 1778054874 | 11.67° C | 99% | 1012.2 hPa | 0 mm | - | 0 W/m² | - |
| 1778054570 | 11.67° C | 99% | 1012 hPa | 0 mm | - | 0 W/m² | - |
| 1778054268 | 11.67° C | 99% | 1012.1 hPa | 0 mm | - | 0 W/m² | - |
| 1778053965 | 11.67° C | 99% | 1012 hPa | 0 mm | - | 0 W/m² | - |
| 1778053662 | 11.67° C | 99% | 1012.1 hPa | 0 mm | - | 0 W/m² | - |
| 1778053359 | 11.67° C | 99% | 1012.1 hPa | 0 mm | - | 0 W/m² | - |
* Rain latest hour (hover to see other rain measurements)
** Current wind speed in m/s (hover to see current wind gust speed)